Location: Unspecified
(0.0000°N, 0.0000°E)
Time: 14:29:47
(UTC+00:00)

ISS - Pass Details

Date: 18 August 2019
Orbit: 410 x 420 km, 51.6° (Epoch: 21 August)

Event Time Altitude Azimuth Distance (km) Brightness Sun altitude
Exits shadow 05:05:05 - 189° (S) 1,968 -0.6 -14.3°
Reaches altitude 10° 05:06:31 10° 177° (S) 1,475 -1.1 -14.0°
Maximum altitude 05:09:06 21° 126° (SE) 989 -1.4 -13.4°
Drops below altitude 10° 05:11:40 10° 75° (ENE) 1,474 0.5 -12.7°
Sets 05:14:05 0° 58° (ENE) 2,335 1.6 -12.1°
